Flag for Netherlands Weather past 2 weeks in Eindhoven, Netherlands

Now
70 °F

Fog.


Feels Like: 70 °F
Forecast: 57 / 74 °F
Wind: 1 mph from Northeast

Location: Eindhoven Airport

Current Time: Sep 19, 2014 at 2:13:46 PM

Latest Report: Sep 19, 2014 at 1:55 PM


Visibility: 3 mi

Pressure: 29.86 "Hg

Humidity: 83%

Dew point: 64 °F

Location of EindhovenLocation

Historic Weather in Eindhoven — Graph

°F

Eindhoven temperature yesterday

Maximum temperature yesterday: 77 °F (at 1:25 PM)
Minimum temperature yesterday: 57 °F (at 1:01 AM)
Average temperature yesterday: 66 °F

Past Weeks' High & Low Weather Summary

 TemperatureHumidityPressure
High77 °F (Sep 17, 2:25 PM)100% (Sep 6, 12:25 AM)30.27 "Hg (Sep 6, 12:25 AM)
Low46 °F (Sep 9, 3:25 AM)47% (Sep 17, 3:25 PM)29.80 "Hg (Sep 18, 5:25 AM)
Average62 °F82%30.03 "Hg
* Reported Sep 4 12:25 PM — Sep 19 12:55 PM, Eindhoven, Weather by CustomWeather, © 2014

Note: Actual official high and low records may vary slightly from our data, if they occured in-between our weather recording intervals... More about our weather records

Advertising

Eindhoven weather history for previous 24 hours

 ConditionsComfort  
Time TempWeatherWind HumidityBarometerVisibility
12:55 PM
Sep 19
68 °FFog.2 mph88%29.86 "Hg2 mi
12:25 PM66 °FFog.1 mph94%29.86 "Hg2 mi
11:55 AM66 °FFog.1 mph88%29.86 "Hg2 mi
11:25 AM64 °FFog.2 mph94%29.86 "Hg1 mi
10:55 AM64 °FFog.2 mph94%29.86 "Hg1 mi
10:25 AM64 °FFog.2 mph94%29.86 "Hg1 mi
9:56 AM64 °FFog.3 mph94%29.86 "Hg1 mi
9:25 AM64 °FFog.2 mph94%29.86 "Hg1 mi
8:55 AM64 °FFog.2 mph94%29.86 "Hg1 mi
8:25 AM63 °FFog.2 mph100%29.83 "Hg1 mi
7:55 AM64 °FFog.2 mph94%29.83 "Hg0 mi
7:25 AM64 °FFog.1 mph94%29.83 "Hg1 mi
6:55 AM64 °FFog.1 mph94%29.83 "Hg1 mi
6:25 AM64 °FFog.No wind94%29.80 "Hg1 mi
5:55 AM64 °FFog.1 mph94%29.80 "Hg1 mi
5:25 AM64 °FFog.1 mph94%29.80 "Hg1 mi
4:55 AM64 °FFog.1 mph94%29.80 "Hg1 mi
4:25 AM64 °FFog.2 mph94%29.83 "Hg1 mi
3:55 AM64 °FFog.2 mph94%29.83 "Hg1 mi
3:25 AM64 °FFog.2 mph94%29.83 "Hg1 mi
2:55 AM64 °FFog.3 mph94%29.83 "Hg1 mi
2:25 AM64 °FFog.3 mph94%29.83 "Hg2 mi
1:55 AM64 °FFog.3 mph94%29.83 "Hg2 mi
1:25 AM64 °FFog.1 mph94%29.83 "Hg1 mi
12:55 AM64 °FFog.5 mph94%29.83 "Hg1 mi
12:25 AM64 °FFog.1 mph100%29.83 "Hg2 mi
12:01 AM64 °FDrizzle. Overcast.2 mph94%29.83 "Hg3 mi
11:25 PM
Sep 18
64 °FDrizzle. Overcast.1 mph94%29.83 "HgN/A
10:55 PM64 °FLight rain. Passing clouds.2 mph88%29.83 "HgN/A
10:25 PM64 °FRain showers. Mostly cloudy.6 mph94%29.83 "HgN/A
10:04 PM64 °FSprinkles. Mostly cloudy.7 mph94%29.80 "HgN/A
9:55 PM66 °FRain showers. Partly cloudy.7 mph94%29.80 "Hg3 mi
9:25 PM66 °FPassing clouds.7 mph94%29.83 "HgN/A
8:55 PM66 °FMostly cloudy.3 mph94%29.83 "HgN/A
8:25 PM68 °FFog.3 mph88%29.80 "Hg5 mi
7:55 PM68 °FLight rain. Partly sunny.8 mph88%29.80 "HgN/A
7:25 PM72 °FLight rain. Mostly cloudy.7 mph73%29.80 "HgN/A
6:55 PM72 °FMostly cloudy.5 mph73%29.80 "HgN/A
6:25 PM72 °FPartly sunny.5 mph73%29.80 "HgN/A
5:55 PM72 °FPartly sunny.6 mph73%29.80 "HgN/A
5:25 PM73 °FOvercast.7 mph65%29.80 "HgN/A
4:55 PM73 °FMore clouds than sun.7 mph65%29.80 "HgN/A
4:25 PM73 °FOvercast.7 mph65%29.80 "HgN/A
3:55 PM73 °FMostly cloudy.7 mph61%29.80 "HgN/A
3:25 PM75 °FOvercast.9 mph61%29.80 "HgN/A
2:55 PM73 °FOvercast.9 mph61%29.80 "HgN/A
2:25 PM73 °FOvercast.10 mph65%29.80 "HgN/A
Weather by CustomWeather, © 2014

See weather overviewHow to use our weather pages